Regional Weather Roundup
Issued by NWS

Home | Current Version | Previous Version | Text Only | Print | Product List | Glossary On
Versions: 1 2 3 4 5 6 7 8 9 10 11 12 13 14 15 16 17 18 19 20 21 22 23 24 25 26 27 28 29 30 31 32 33 34 35 36 37 38 39 40 41 42 43 44 45 46 47 48 49 50
000
ASUS43 KBIS 021210
RWRND

NORTH DAKOTA REGIONAL WEATHER ROUNDUP
NATIONAL WEATHER SERVICE BISMARCK ND
700 AM CDT SUN AUG 02 2015

NOTE: "FAIR" INDICATES FEW OR NO CLOUDS BELOW 12,000 FEET WITH NO
SIGNIFICANT WEATHER AND/OR OBSTRUCTIONS TO VISIBILITY.


NDZ001>003-009>011-017-021300-
NORTHWEST NORTH DAKOTA

CITY           SKY/WX    TMP DP  RH WIND       PRES   REMARKS
WILLISTON      CLEAR     54  50  86 CALM      29.96R
6HR MIN TEMP:  53; 6HR MAX TEMP:  68;

MINOT          CLEAR     59  53  80 W10       29.88R
MINOT AFB      CLEAR     58  56  94 NW9       29.87R
$$

NDZ018>021-031>035-040>046-021300-
SOUTHWEST NORTH DAKOTA

CITY           SKY/WX    TMP DP  RH WIND       PRES   REMARKS
BISMARCK       CLEAR     62  55  77 NW8       29.88R
6HR MIN TEMP:  61; 6HR MAX TEMP:  70;

DICKINSON      CLEAR     50  48  93 W6        29.93R
GARRISON         N/A     59  55  87 N12       29.88R
6HR MIN TEMP:  57; 6HR MAX TEMP:  69;

HETTINGER ARPT CLEAR     51  48  89 NW6       29.95R
$$

NDZ004>008-012>016-024-026-027-054-021300-
NORTHEAST NORTH DAKOTA

CITY           SKY/WX    TMP DP  RH WIND       PRES   REMARKS
GRAND FORKS    PTCLDY    61  59  93 NW10      29.71R
GRND FRKS AFB  PTCLDY    62  59  91 N13       29.73R
DEVILS LAKE    PTCLDY    61  54  77 NW10      29.79R
$$

NDZ022-023-025-028>030-036>039-047>053-021300-
SOUTHEAST NORTH DAKOTA

CITY           SKY/WX    TMP DP  RH WIND       PRES   REMARKS
FARGO          MOCLDY    68  61  78 N14       29.67R
6HR MIN TEMP:  66; 6HR MAX TEMP:  72;

JAMESTOWN      CLEAR     63  58  83 NW14      29.78R
$$




USA.gov is the U.S. government's official web portal to all federal, state and local government web resources and services.